Tracking 18784 objects as of 17-August-2017
HD Live streaming from Space Station
objects crossing your sky now

W75/ABS-1B (HOT BIRD 3)

Track W75/ABS-1B (HOT BIRD 3) now!
W75/ABS-1B (HOT BIRD 3) is classified as:


NORAD ID: 24931
Int'l Code: 1997-049A
Perigee: 35,100.1 km
Apogee: 35,271.6 km
Inclination: 6.4 °
Period: 1,405.2 minutes
Semi major axis: 41556 km
RCS: 15.8489 m2 (large)
Launch date: September 2, 1997
Source: European Telecommunications Satellite Organization (EUTE)
Launch site: FRENCH GUIANA (FRGUI)

Cable programming; direct-to-home broadcasting; Europe, North Africa, 20 active channels
Your satellite tracking list
Your tracking list is empty





NASA's NSSDC Master Catalog

Two Line Element Set (TLE):
1 24931U 97049A   17227.59841028 -.00000104  00000-0  00000+0 0  9999
2 24931   6.3855  53.3984 0020641 324.9165  13.4283  1.02479939 73637
Source of the keplerian elements: AFSPC